"Pseudo-MPEC" for C8KJ5Q2

Created 2022 Dec 11 6:22:06 UT using Find_Orb

Click here for an explanation of pseudo-MPECs

 
 Astrometry: 
     C8KJ5Q2*1C2022 12 01.31398404 42 26.550+00 36 06.73   ~C18M 21.33GVNEOCPG96
     C8KJ5Q2 1C2022 12 01.31913004 42 25.524+00 36 38.23   ~C18M 21.55GVNEOCPG96
     C8KJ5Q2 1C2022 12 01.32426804 42 24.469+00 37 08.15   ~C18M 21.47GVNEOCPG96
     C8KJ5Q2 1C2022 12 01.32939504 42 23.411+00 37 39.65   ~C18M 21.02GVNEOCPG96
     C8KJ5Q2 KC2022 12 01.42402704 42 04.018+00 47 00.92   ~C1Ab 19.75GVNEOCPI52
     C8KJ5Q2 KC2022 12 01.42712504 42 03.542+00 47 20.76   ~C1Ab 21.68GVNEOCPI52
     C8KJ5Q2 KC2022 12 01.43022204 42 02.959+00 47 38.65   ~C1Ab 21.62GVNEOCPI52
     C8KJ5Q2 KC2022 12 01.43331204 42 02.311+00 47 57.52   ~C1Ab 21.42GVNEOCPI52

Station data:
(G96) Mt. Lemmon Survey  (N32.442751 W110.788720)  US/Arizona.  Observers T.
   A. Pruyne, B. M. Africano, E. J. Christensen, G. A. Farneth, D. C. Fuls,
   A. R. Gibbs, A. D. Grauer, H. Gröller, J. A. Johnson, R. A. Kowalski, S.
   M. Larson, G. J. Leonard, D. Rankin, R. L. Seaman, F. C. Shelly, K. W.
   Wierzchoś. 1.5-m reflector + 10K CCD.
(I52) Steward Observatory, Mt. Lemmon Station  (N32.442544 W110.788920)
   US/Arizona.  Observers T. A. Pruyne, B. M. Africano, E. J. Christensen, G.
   A. Farneth, D. C. Fuls, A. R. Gibbs, A. D. Grauer, H. Gröller, J. A.
   Johnson, R. A. Kowalski, S. M. Larson, G. J. Leonard, D. Rankin, R. L.
   Seaman, F. C. Shelly, K. W. Wierzchoś. 1.0-m reflector + CCD.

Orbital elements:  C8KJ5Q2
   Perihelion 2022 Nov 26.31452 +/- 44.4 TT =  7:32:54 (JD 2459909.81452)
Epoch 2022 Dec  1.0 TT = JDT 2459914.5   Earth MOID: 0.2235      AutoNEOCP
M   2.69383720 +/- 33               (J2000 ecliptic)
n   0.57493252 +/- 0.179            Peri.  346.73951 +/- 43
a   1.43237960 +/- 0.297            Node    77.15461 +/- 2.2
e   0.1588478 +/- 0.0992            Incl.   25.98845 +/- 10
P   1.71/626.15d           H 23.36  G  0.15   U 11.6  SR
q 1.20484911 +/- 0.104    Q 1.65991008 +/- 0.516
From 8 observations 2022 Dec. 1 (2.9 hr); mean residual 0".68
Residuals in arcseconds: 
221201 G96  .22-  .62-    221201 G96  .01+  .74+    221201 I52  .93+  .08-    
221201 G96  .19+  .31+    221201 I52  1.9-  .92-    221201 I52  .54+  .39+    
221201 G96  .14+  .30-    221201 I52  .31+  .47+    

Ephemerides (geocentric):
Date (UTC) HH   RA             Dec           delta  r     elong  mag " sig PA
---- --------  ------------   ------------  ------ ------ -----  --- --------
2022 12 11 06  04 08 56.463   +17 57 22.26  .23050 1.2084 164.5 21.4 238'  76
2022 12 11 07  04 08 47.890   +18 01 42.06  .23057 1.2085 164.5 21.4 240'  75
2022 12 11 08  04 08 39.319   +18 06 01.71  .23064 1.2085 164.4 21.4 243'  75
2022 12 11 09  04 08 30.750   +18 10 21.21  .23071 1.2085 164.4 21.4 245'  75
2022 12 11 10  04 08 22.182   +18 14 40.54  .23078 1.2085 164.3 21.4 247'  75
2022 12 11 11  04 08 13.616   +18 18 59.71  .23085 1.2085 164.3 21.4 250'  75
2022 12 11 12  04 08 05.053   +18 23 18.73  .23092 1.2086 164.2 21.4 252'  75
2022 12 11 13  04 07 56.491   +18 27 37.57  .23099 1.2086 164.2 21.4 254'  75
2022 12 11 14  04 07 47.931   +18 31 56.26  .23106 1.2086 164.1 21.4 257'  75
2022 12 11 15  04 07 39.372   +18 36 14.77  .23113 1.2086 164.1 21.4 259'  75
2022 12 11 16  04 07 30.816   +18 40 33.12  .23120 1.2086 164.0 21.4 262'  75
2022 12 11 17  04 07 22.262   +18 44 51.30  .23128 1.2087 164.0 21.4 264'  75
2022 12 11 18  04 07 13.710   +18 49 09.31  .23135 1.2087 163.9 21.4 267'  75
2022 12 11 19  04 07 05.160   +18 53 27.15  .23143 1.2087 163.9 21.4 269'  75
2022 12 11 20  04 06 56.613   +18 57 44.81  .23150 1.2087 163.8 21.4 271'  75
2022 12 11 21  04 06 48.067   +19 02 02.30  .23158 1.2087 163.8 21.4 274'  75
2022 12 11 22  04 06 39.524   +19 06 19.61  .23165 1.2088 163.7 21.4 276'  75
2022 12 11 23  04 06 30.983   +19 10 36.74  .23173 1.2088 163.7 21.4 279'  75
2022 12 12 00  04 06 22.444   +19 14 53.69  .23181 1.2088 163.6 21.4 281'  75
2022 12 12 01  04 06 13.907   +19 19 10.46  .23189 1.2088 163.6 21.4 284'  74
2022 12 12 02  04 06 05.373   +19 23 27.05  .23197 1.2089 163.5 21.4 286'  74
2022 12 12 03  04 05 56.842   +19 27 43.45  .23205 1.2089 163.5 21.4 289'  74
2022 12 12 04  04 05 48.312   +19 31 59.67  .23213 1.2089 163.4 21.4 292'  74
2022 12 12 05  04 05 39.786   +19 36 15.70  .23221 1.2089 163.3 21.4 294'  74
2022 12 12 06  04 05 31.261   +19 40 31.55  .23229 1.2089 163.3 21.4 297'  74
2022 12 12 07  04 05 22.740   +19 44 47.20  .23237 1.2090 163.2 21.4 299'  74
2022 12 12 08  04 05 14.221   +19 49 02.66  .23245 1.2090 163.2 21.4 302'  74
2022 12 12 09  04 05 05.704   +19 53 17.93  .23254 1.2090 163.1 21.4 304'  74
2022 12 12 10  04 04 57.190   +19 57 33.01  .23262 1.2090 163.1 21.4 307'  74
2022 12 12 11  04 04 48.679   +20 01 47.89  .23270 1.2090 163.0 21.5 310'  74
2022 12 12 12  04 04 40.171   +20 06 02.57  .23279 1.2091 162.9 21.5 312'  74
2022 12 12 13  04 04 31.665   +20 10 17.06  .23287 1.2091 162.9 21.5 315'  74
2022 12 12 14  04 04 23.163   +20 14 31.34  .23296 1.2091 162.8 21.5 318'  74
2022 12 12 15  04 04 14.663   +20 18 45.43  .23305 1.2091 162.8 21.5 320'  74
2022 12 12 16  04 04 06.166   +20 22 59.31  .23314 1.2092 162.7 21.5 323'  74
2022 12 12 17  04 03 57.672   +20 27 12.99  .23322 1.2092 162.6 21.5 326'  73
2022 12 12 18  04 03 49.181   +20 31 26.46  .23331 1.2092 162.6 21.5 328'  73
2022 12 12 19  04 03 40.693   +20 35 39.73  .23340 1.2092 162.5 21.5 331'  73
2022 12 12 20  04 03 32.208   +20 39 52.79  .23349 1.2092 162.5 21.5 334'  73
2022 12 12 21  04 03 23.726   +20 44 05.64  .23358 1.2093 162.4 21.5 337'  73
2022 12 12 22  04 03 15.247   +20 48 18.29  .23367 1.2093 162.3 21.5 339'  73
2022 12 12 23  04 03 06.771   +20 52 30.72  .23376 1.2093 162.3 21.5 342'  73
2022 12 13 00  04 02 58.299   +20 56 42.93  .23386 1.2093 162.2 21.5 345'  73
2022 12 13 01  04 02 49.830   +21 00 54.94  .23395 1.2094 162.2 21.5 348'  73
2022 12 13 02  04 02 41.364   +21 05 06.73  .23404 1.2094 162.1 21.5 350'  73
2022 12 13 03  04 02 32.901   +21 09 18.30  .23414 1.2094 162.0 21.5 353'  73
2022 12 13 04  04 02 24.442   +21 13 29.65  .23423 1.2094 162.0 21.5 356'  73
2022 12 13 05  04 02 15.986   +21 17 40.79  .23433 1.2094 161.9 21.5 359'  73